www.pogodaiklimat.ru
ПОГОДА в Скаппузе
Время
и дата
10:13 26.05
10:53 26.05
11:53 26.05
12:53 26.05
13:53 26.05
14:53 26.05
15:53 26.05
16:53 26.05
17:53 26.05
18:53 26.05
19:53 26.05
20:53 26.05
21:53 26.05
22:53 26.05
23:53 26.05
00:53 27.05
01:53 27.05
02:53 27.05
03:53 27.05
04:53 27.05
05:53 27.05
06:53 27.05
07:53 27.05
08:53 27.05
09:53 27.05
10:53 27.05
11:53 27.05
12:53 27.05
13:53 27.05
14:53 27.05
15:53 27.05
16:53 27.05
17:53 27.05
18:53 27.05
19:53 27.05
20:53 27.05
21:53 27.05
22:53 27.05
23:53 27.05
00:53 28.05
01:53 28.05
02:53 28.05
03:53 28.05
04:53 28.05
05:53 28.05
06:53 28.05
07:53 28.05
08:53 28.05
Ветер
(напр.,м/с)
Видим. Явления Облачность Т
(С)
Тd
(С)
f
(%)
Тe
(С)
Тes
(С)
Комфортность P
(гПа)
Po
(гПа)
Тmin
(С)
Tmax
(С)
R
(мм)
R24
(мм)
S
(см)
нст 3 16 км 8/8 900 м 1018.3
В 2 16 км 5/5 960 м 1018.3
нст 2 16 км 2/2 1260 м 1017.9
нст 2 16 км 2/2 1320 м 1017.6
нст 3 16 км 2/2 1470 м 1017.3
С 2 16 км 10/8 1440 m
[Ac]
1017.3
нст 3 16 км 8/8 1650 m
[Ac]
1016.9
С 4 16 км 10/10 1650 м 1016.9
С 6 16 км 8/5 1650 m
[Ac]
1016.9
С 4 16 км ясно 1017.3
С 4 16 км ясно 1017.6
С 2 16 км ясно 1018.3
СЗ 4 16 км ясно 1018.3
штиль 0 16 км ясно 1018.3
штиль 0 16 км ясно 1018.3
штиль 0 16 км ясно 1018.6
штиль 0 16 км ясно 1018.6
штиль 0 16 км ясно 1018.6
штиль 0 16 км ясно 1018.9
штиль 0 16 км 8/8 1050 м 1018.9
штиль 0 16 км 10/10 1020 м 1019.3
СЗ 2 16 км 10/10 990 м 1019.6
штиль 0 16 км 8/8 930 м 1019.6
нст 2 16 км 5/5 960 м 1019.6
нст 2 16 км ясно 1019.3
нст 2 16 км ясно 1018.9
нст 2 16 км ясно 1018.3
С 4 16 км ясно 1017.6
штиль 0 16 км ясно 1016.9
штиль 0 16 км ясно 1016.6
С 5 16 км ясно 1015.9
СЗ 3 16 км ясно 1015.2
СЗ 2 16 км ясно 1014.9
СЗ 2 16 км ясно 1014.9
СЗ 3 16 км ясно 1015.2
СЗ 3 16 км ясно 1015.6
С 3 16 км ясно 1015.6
С 2 16 км ясно 1015.6
СЗ 3 16 км ясно 1015.2
нст 2 16 км ясно 1015.2
С 3 16 км ясно 1015.6
С 3 16 км ясно 1015.9
С 2 16 км 10/10 1080 м 1016.6
С 3 16 км 10/10 1260 м 1016.9
штиль 0 16 км 10/10 1260 м 1017.3
штиль 0 16 км 10/10 1500 м 1017.6
штиль 0 16 км 5/2 1440 m
[Ac]
1017.9
ЮВ 3 16 км 2/2 660 m
[Ac]
1017.9
Местоположение метеостанции Scappoose Industrial Airpark: широта 45.7692 долгота -122.8622 высота над уровнем моря 16 м.
В архиве по умолчанию представлена погода в Скаппузе за последние 1-2 суток. Обновление информации о фактической погоде в базе происходит ежечасно! Архивные данные за месяц целиком и за предыдущие месяцы Вы можете получить, выбрав интересующий диапазон дат из раскрывающегося списка и нажав кнопку "Ввод!".
Внимание! Архив погоды МЕТАР в базе сайта по станциям, не включенным в климатический монитор, хранится не более 60 дней. Нет смысла пытаться выбрать более раннюю дату.
*Определитесь, кто Вы:
Внимание! Время в таблицах - местное (без учета летнего времени). Для получения всемирного времени необходимо вычесть поправку, которая равна -8 ч.
Смотрите также архив погоды в соседних городах и на ближайших метеорологических станциях:
Партнеры нашего сайта:      
Пояснения к столбцам:
  • Ветер - указаны скорость ветра в м/с - средняя за 10 мин, порывы в срок и между сроками (в фигурных скобках) и направление, откуда дует ветер: С - северный,
  • СВ - северо-восточный, В - восточный, ЮВ - юго-восточный, Ю - южный, ЮЗ - юго-западный, З - западный, СЗ - северо-западный.
  • Видимость - горизонтальная дальность видимости в метрах или километрах. При видимости от 1 до 10 км при отсутствии осадков обычно наблюдается дымка, при ухудшении видимости до 1 км и менее - туман. В сухую погоду видимость может ухудшаться дымом, пылью или мглою.
  • Явления - указаны атмосферные явления, наблюдавшиеся в срок или в последний час перед сроком; фигурными скобками обозначены явления, наблюдавшиеся между сроками (за 1-3 часа до срока); квадратными скобками обозначены град или гололедные отложения с указанием их диаметра в мм.
  • Облачность - указаны через наклонную черту общая и нижняя облачность в баллах и высота нижней границы облаков в метрах; квадратными скобками обозначены формы облаков: Ci - перистые, Cs - перисто-слоистые, Cc - перисто-кучевые, Ac - высококучевые, As - высокослоистые, Sc - слоисто-кучевые, Ns - слоисто-дождевые, Cu - кучевые, Cb - кучево-дождевые. Подробнее классификацию облаков см. в Атласе облаков (PDF).
  • T - Температура воздуха - температура, измеренная на высоте 2 м над землей.
  • Td - Температура точки росы - температура, при понижении до которой содержащийся в воздухе водяной пар достигнет насыщения.
  • f - Относительная влажность воздуха - влажноcть воздуха, измеренная на высоте 2 м над землей.
  • Te - Эффективная температура - температура, которую ощущает одетый по сезону человек в тени. Характеристика душности погоды. При расчете учитывается влияние влажности воздуха и скорости ветра на теплоощущения человека.
  • Tes - Эффективная температура на солнце - температура, которую ощущает человек, с поправкой на солнечный нагрев. Характеристика знойности погоды. Зависит от высоты солнца над горизонтом, облачности и скорости ветра. Ночью, в пасмурную погоду, а также при ветре 12 м/с и более поправка равна нулю.
  • P - Атмосферное давление - приведенное к уровню моря атмосферное давление.
  • Po - Атмосферное давление - измеренное на уровне метеостанции атмосферное давление.
  • Tmin - Минимальная температура - минимум температуры воздуха на высоте 2 м над землей.
  • Tmax - Максимальная температура - максимум температуры воздуха на высоте 2 м над землей.
  • R - Количество осадков - Количество выпавших осадков за период времени, мм. При наведении курсора мыши на число - период времени, за который выпало указанное количество осадков.
  • R24 - Количество осадков - Количество выпавших осадков за 24 часа, мм.
  • S - Снежный покров - Высота снежного покрова, см. При наведении курсора мыши на число - состояние снежного покрова и степень покрытия местности в баллах.